User: anonymous   Login
Location: Lucerne Valley
(34.4439°N, 116.9669°E)
Time: 14:35:48
(UTC-07:00)
Language:

Tiangong 2 - Orbit

View from above orbital plane
View from above orbital plane
View from above satellite
View from above satellite

Ground track
Ground track

The orbit data is extracted from the following two-line orbital elements,

1 41765U 16057A   18140.47780179  .00003693  00000-0  46679-4 0  9996
2 41765  42.7837 148.1117 0002769  46.6638  82.7222 15.61301533 95652
Epoch (UTC): 20 May 2018 11:28:02
Eccentricity: 0.0002769
inclination: 42.7837°
perigee height: 382 km
apogee height: 386 km
right ascension of ascending node: 148.1117°
argument of perigee: 46.6638°
revolutions per day: 15.61301533
mean anomaly at epoch: 82.7222°
orbit number at epoch: 9565

The dashed part of the orbit path shows where the satellite is in the earth's shadow,  

DLR